OBJECT AD, 61762

Orbit data source: Space-Track

You're viewing an Uncataloged Satellite

Recently launched and/or uncataloged satellites may have evolving metadata. Metadata may include but not limited to: Owner, Maufacturer, Bus, Motor, and Mission.

OBJECT AD, 61762 is a satellite in SSO that was launched on Mon, 04 Nov 2024 UTC via a SOYUZ-2-1B launch vehicle from the Vostochny Cosmodrome (VOSTO). Unknown objects in Earth's orbit typically refer to objects detected orbiting the Earth but have not yet been identified or cataloged. These objects could be anything from previously untracked satellites, spent rocket stages, debris from satellite collisions, or even natural meteoroids temporarily captured by Earth's gravity.

Loading next visibility...
OBJECT AD details
Identifier
61762, 2024-199AD
Orbit
SSO
Last TLE update9 hours ago
Origin
Flag of TBDNARFU (TBD)
ManufacturerSputniks
MissionOperational spacecraft
Bus & MotorCUBESAT 3U, Unknown motor
Mass3 kg wet, 3 kg dry
Launch date (UTC)
2024-11-04 (2 months ago)
Launch vehicle
SOYUZ-2-1B
Launch site
Vostochny Cosmodrome (VOSTO)
Object typeUnknown
Shape & HBRUnknown
Radar Cross SectionSmall (<0.1 m²)

Expand to show TLE details & history

TLE from 9 hours ago
0 OBJECT AD
1 61762U 24199AD  24361.58702891  .00031044  00000-0  11620-2 0  9997
2 61762  97.3808 225.7489 0015612  48.5885 311.6692 15.27130086 54874
Epoch: 2024-12-26T14:05Z
Definitive object data (Epoch: 2024-12-26T14:05:19.297Z)
Latitude-0.00014°
Longitude-81.14577°
Altitude480.382 km
Speed7.629 km/s
True Right ascension15h 02m 59s
True Declination0° 00' 00"
Sunlit
Object was in daylight at TLE epoch
Visualization TLE readout
Latitude-1.84269°
Longitude-80.51983°
Altitude480.631 km
Speed7.629 km/s
Apparent Right ascension13h 23m 06s
Apparent Declination-23° 02' 45"
Sunlit
Object is in daylight
Visualization observer readout
Local Sidereal Time22:54:17
Azimuth286.996° WNW
Elevation-54.424°
Doppler factor1
Orbital elements
Apogee altitude492.061 km
Perigee altitude470.643 km
Semi-major axis6,859.489 km
Eccentricity0.0015612
Inclination97.3808°
RAAN225.7489°
Arg. of periapsis48.5885°
True anomaly311.53539°
Mean anomaly311.6692°
Eccentric anomaly311.60231°
Mean motion3.82037 °/min
BSTAR0.001162
Orbital period94.23 mins
Loading maneuver chart data...
Loading historical data...
Loading historical data...
Loading historical data...
Loading historical data...
Loading historical data...
Loading historical data...
Loading historical data...

OBJECT AD Visibility forecast

Observer location: undefined°, undefined

Span
Click to sort rows by Start time (UTC) header in descending order
Start Az.
Max El. time (UTC)
Max El. Az.
Max El.
End time (UTC)
End Az.
4 mins2024-12-27 03:14:57.889Z54.043° ENE2024-12-27 03:16:57.889Z93.405° ESE18.435°2024-12-27 03:18:57.889Z133.798° SE
4 mins2024-12-27 04:48:57.889Z323.257° NNW2024-12-27 04:49:57.889Z300.828° NW20.692°2024-12-27 04:52:57.889Z239.342° WSW
5 mins2024-12-27 15:22:57.889Z178.868° S2024-12-27 15:24:57.889Z215.376° SW40.621°2024-12-27 15:27:57.889Z339.809° N
|